266P/Christensen (2013)

Japanese version
Home page
Updated on June 11, 2016

---------------------------------------------------------------------

* Profile

Designation 266P/2012 P1
Recovery Date August 15, 2012
Magnitude 21.4 mag
Recoverer Artyom Novichonok and Otabek Burhonov (Majdanak observatory, Uzbekistan)

* Pictures

* Orbital Elements

Epoch 2013 Aug. 16.0 TT = JDT 2456520.5
T 2013 Aug. 31.63271 TT                                 MPC
q   2.3280020            (2000.0)            P               Q
n   0.14841699     Peri.   98.01429     -0.22586356     -0.97414474
a   3.5330271      Node     5.04855     +0.86856957     -0.20382491
e   0.3410744      Incl.    3.42785     +0.44110380     -0.09745482
P   6.64
From 521 observations 2006 Oct. 27-2014 May 2, mean residual 0".8.
     Nongravitational parameters A1 = +0.46, A2 = -0.2725.

* Magnitudes Graph

        m1 = 13.3 + 5 log d + 10.0 log r

---------------------------------------------------------------------

The orbital elements are published on M.P.E.C. 2014-V27.
The magnitudes graphs are made with Comet for Windows.

---------------------------------------------------------------------

Copyright(C) Seiichi Yoshida (comet@aerith.net). All rights reserved.